User: anonymous   Login
Location: Peebles
(55.6412°N, 3.1714°W)
Time: 02:15:35
(UTC+00:00)
Language:

Cosmos 2297 - Orbit

View from above orbital plane
View from above orbital plane
View from above satellite
View from above satellite

Ground track
Ground track

The orbit data is extracted from the following two-line orbital elements,

1 23404U 94077A   21333.42104709 -.00000065  00000-0 -90614-5 0  9997
2 23404  71.0108 128.6033 0016756 205.7150 154.3140 14.13547438393834
Epoch (UTC): 29 November 2021 10:06:18
Eccentricity: 0.0016756
inclination: 71.0108°
perigee height: 835 km
apogee height: 859 km
right ascension of ascending node: 128.6033°
argument of perigee: 205.7150°
revolutions per day: 14.13547438
mean anomaly at epoch: 154.3140°
orbit number at epoch: 39383

The dashed part of the orbit path shows where the satellite is in the earth's shadow,  

DLR